Location: Dyersburg
(36.0438°N, 89.3789°W)
Time: 19:39:00
(UTC+00:00)

Transit 4A - All Passes

Search period start: 21 February 2020 00:00
Search period end: 02 March 2020 00:00
Orbit: 872 x 973 km, 66.8° (Epoch: 21 February)

Date Brightness Start Highest point End Pass type
(mag) Time Alt. Az. Time Alt. Az. Time Alt. Az.
21 Feb - 04:47:27 10° SSE 04:51:50 21° ESE 04:56:10 10° ENE night (unlit)
21 Feb - 06:31:59 10° SW 06:37:45 51° WNW 06:43:28 10° NNE night (unlit)
21 Feb - 13:52:26 10° N 13:56:02 16° NE 13:59:39 10° E daylight
21 Feb - 15:37:09 10° NNW 15:43:01 80° WSW 15:49:00 10° SSE daylight
22 Feb - 04:55:41 10° S 05:00:58 34° ESE 05:06:11 10° NE night (unlit)
22 Feb - 06:41:51 10° WSW 06:47:13 34° NW 06:52:31 10° N night (unlit)
22 Feb - 14:01:02 10° N 14:05:41 24° NE 14:10:21 10° ESE daylight
22 Feb - 15:46:36 10° NW 15:52:16 51° WSW 15:58:02 10° S daylight
23 Feb - 05:04:22 10° S 05:10:09 52° ESE 05:15:50 10° NE night (unlit)
23 Feb - 06:52:07 10° WSW 06:56:45 23° NW 07:01:22 10° N night (unlit)
23 Feb - 14:09:54 10° N 14:15:13 35° NE 14:20:36 10° ESE daylight
23 Feb - 15:56:17 10° NW 16:01:27 33° WSW 16:06:43 10° S daylight
24 Feb - 05:13:26 10° SSW 05:19:24 81° ESE 05:25:17 10° NNE night (unlit)
24 Feb - 07:02:51 10° W 07:06:24 16° NW 07:09:57 10° N night (unlit)
24 Feb - 14:18:57 10° NNW 14:24:40 52° ENE 14:30:28 10° SE daylight
24 Feb - 16:06:18 10° WNW 16:10:35 21° WSW 16:14:55 10° SSW daylight
25 Feb - 03:39:36 10° SE 03:43:01 16° ESE 03:46:24 10° ENE night (unlit)
25 Feb - 05:22:48 10° SW 05:28:44 67° WNW 05:34:34 10° NNE night (unlit)
25 Feb - 07:14:41 10° WNW 07:16:10 11° NW 07:17:39 10° NNW night (unlit)
25 Feb - 12:44:13 10° NNE 12:46:47 13° NE 12:49:22 10° ENE daylight
25 Feb - 14:28:10 10° NNW 14:34:02 79° ENE 14:40:02 10° SSE daylight
25 Feb - 16:17:09 10° WNW 16:19:38 13° WSW 16:22:09 10° SW daylight
26 Feb - 03:47:21 10° SSE 03:52:06 25° ESE 03:56:48 10° NE night (unlit)
26 Feb - 05:32:29 10° SW 05:38:08 44° WNW 05:43:43 10° NNE night (unlit)
26 Feb - 12:52:27 10° N 12:56:30 19° NE 13:00:35 10° E daylight
26 Feb - 14:37:30 10° NNW 14:43:20 69° WSW 14:49:17 10° SSE daylight
27 Feb - 03:55:46 10° S 04:01:14 39° ESE 04:06:39 10° NE night (unlit)
27 Feb - 05:42:31 10° WSW 05:47:37 30° NW 05:52:42 10° N night (unlit)
27 Feb - 13:01:10 10° N 13:06:07 27° NE 13:11:06 10° ESE daylight
27 Feb - 14:47:01 10° NW 14:52:34 44° WSW 14:58:12 10° S daylight
28 Feb - 04:04:36 10° SSW 04:10:28 62° ESE 04:16:14 10° NE night (unlit)
28 Feb - 05:52:54 10° W 05:57:13 20° NW 06:01:29 10° N night (unlit)
28 Feb - 13:10:07 10° NNW 13:15:37 40° ENE 13:21:11 10° SE daylight
28 Feb - 14:56:49 10° NW 15:01:44 28° WSW 15:06:44 10° SSW daylight
29 Feb - 02:32:37 10° ESE 02:34:14 11° ESE 02:35:49 10° E night (unlit)
29 Feb - 04:13:46 10° SSW 04:19:44 87° WNW 04:25:37 10° NNE night (unlit)
29 Feb - 06:03:54 10° WNW 06:06:53 14° NW 06:09:52 10° NNW night (unlit)
29 Feb - 13:19:14 10° NNW 13:25:02 60° ENE 13:30:57 10° SE daylight
29 Feb - 15:07:01 10° WNW 15:10:50 18° WSW 15:14:41 10° SW daylight
01 Mar - 02:39:17 10° SSE 02:43:16 19° ESE 02:47:12 10° ENE night (unlit)
01 Mar - 04:23:15 10° SW 04:29:05 57° WNW 04:34:51 10° NNE night (unlit)
01 Mar - 11:44:03 10° NNE 11:47:17 15° NE 11:50:32 10° E visible
01 Mar - 13:28:28 10° NNW 13:34:23 89° WSW 13:40:24 10° SSE daylight
01 Mar - 15:18:53 10° W 15:19:52 10° WSW 15:20:51 10° WSW daylight
